Tracking 19242 objects as of 19-Sep-2018
HD Live streaming from Space Station
objects crossing your sky now

FENGYUN 1C DEB

Track FENGYUN 1C DEB now!
10-day predictions


NORAD ID: 32153
Int'l Code: 1999-025CSX
Perigee: 597.1 km
Apogee: 915.7 km
Inclination: 98.6 °
Period: 99.8 minutes
Semi major axis: 7127 km
RCS: 0.0005 m2 (small)
Launch date: May 10, 1999
Source: People's Republic of China (PRC)
Launch site: Taiyaun Space Center, China (TSC)

Note: This is SATELLITE DEBRIS
aabbcc
Your satellite tracking list
Your tracking list is empty




NASA's NSSDC Master Catalog

Two Line Element Set (TLE):
1 32153U 99025CSX 18260.10561571 +.00000119 +00000-0 +39543-4 0  9991
2 32153 098.5577 006.4724 0223532 238.6509 119.2634 14.42800710590580
Source of the keplerian elements: AFSPC